[[{"header":{"parameterUnit":"m.s-1","parameterCategory":2,"la1":30.2992,"la2":30.254,"lo1":-89.0895,"lo2":-89.0443,"dy":0.0025,"dx":0.0025,"nx":19,"ny":19,"refTime":"2026-05-08T03:00:00:Z","depth":"0","parameterNumber":2,"parameterNumberName":"U-component_of_CURRENTS"},"data":[0,0,0,0.2531,0.2531,0.2534,0.2534,0.2494,0.2494,0,0,0,0,0,0,0,0,0,0,0,0.2525,0.2525,0.2531,0.2531,0.2534,0.2534,0.2494,0.2494,0,0,0,0,0,0,0,0,0,0,0,0.2525,0.2525,0.2525,0.2531,0.2534,0.2534,0.2494,0.2499,0,0,0,0,0,0,0,0,0,0,0.25,0.2471,0.2525,0.2525,0.2531,0.2534,0.2534,0.25,0.2499,0.2485,0,0.2494,0,0.25,0.2491,0.2491,0,0,0,0.2517,0.2472,0.2512,0.2525,0.2532,0.2534,0.2529,0.25,0.2499,0.2483,0.2493,0.2492,0.25,0.2491,0.2491,0.2481,0.2481,0,0,0.2517,0.2484,0.2513,0.2512,0.2542,0.2529,0.2529,0.2499,0.2478,0.2493,0.2491,0.2499,0.2491,0.2491,0.248,0.2481,0,0,0,0.2526,0.2483,0.2524,0.2513,0.2521,0.2529,0.2529,0.2478,0.2504,0.2491,0.2499,0.2491,0.249,0.248,0.248,0.2516,0,0,0,0.2525,0.2491,0.2524,0.2498,0.2523,0.2497,0.2508,0.2505,0.2503,0.2499,0.2491,0.249,0.248,0.248,0.2515,0.2538,0,0,0,0.2523,0.2489,0.2502,0.2498,0.2511,0.2499,0.2519,0.2505,0.2508,0.2491,0.249,0.248,0.248,0.2514,0.2536,0.2625,0,0,0,0.2472,0.2463,0.2501,0.2487,0.2511,0.2536,0.252,0.2515,0.2503,0.2491,0.248,0.248,0.2514,0.2535,0.2622,0.2794,0.282,0,0,0.2435,0.2456,0.2453,0.2489,0.2518,0.2534,0.2539,0.2518,0.2503,0.2484,0.2484,0.2516,0.2536,0.2624,0.2814,0.284,0,0,0,0.2425,0.2437,0.2447,0.2472,0.2504,0.2537,0.2533,0.2535,0.2527,0.2501,0.2513,0.2524,0.258,0.2677,0.2697,0.2664,0.2482,0.2482,0.2482,0.2372,0.241,0.2421,0.248,0.2493,0.2537,0.2555,0.256,0.254,0.2549,0.2551,0.2638,0.274,0.2758,0.272,0.2544,0.2544,0.2544,0.2544,0.2366,0.2374,0.2427,0.2447,0.2504,0.2517,0.257,0.2579,0.2636,0.2587,0.264,0.2706,0.2783,0.2735,0.2547,0.2546,0.2546,0.2546,0.2545,0.2341,0.2344,0.2381,0.2419,0.246,0.2502,0.2579,0.2621,0.2666,0.2712,0.2864,0.2865,0.283,0.2759,0.2759,0.276,0.276,0.276,0.2761,0.2287,0.233,0.2335,0.2375,0.2401,0.2454,0.2594,0.2685,0.2867,0.2931,0.2933,0.2867,0.2705,0.2705,0.2768,0.2767,0.2766,0.2765,0.2765,0.2237,0.2248,0.226,0.2282,0.2346,0.2415,0.259,0.29,0.3041,0.3165,0.3164,0.3066,0.3085,0.307,0.3079,0.3236,0.3236,0.3236,0.3236,0.2189,0.2194,0.2212,0.2235,0.2287,0.2391,0.2633,0.2902,0.3206,0.3322,0.3333,0.3297,0.3279,0.3304,0.3283,0.3293,0.3501,0.3501,0.3501,0.2166,0.2172,0.2166,0.2181,0.2247,0.2376,0.2566,0.2804,0.3257,0.3497,0.3251,0.324,0.3161,0.3136,0.3149,0.3123,0.3131,0,0]},{"header":{"parameterUnit":"m.s-1","parameterCategory":2,"la1":30.2992,"la2":30.254,"lo1":-89.0895,"lo2":-89.0443,"dy":0.0025,"dx":0.0025,"nx":19,"ny":19,"refTime":"2026-05-08T03:00:00:Z","depth":"0","parameterNumber":3,"parameterNumberName":"V-component_of_CURRENTS"},"data":[0,0,0,-0.1051,-0.1053,-0.1195,-0.1196,-0.1403,-0.1404,0,0,0,0,0,0,0,0,0,0,0,-0.0995,-0.0995,-0.1051,-0.1053,-0.1194,-0.1196,-0.1403,-0.1405,0,0,0,0,0,0,0,0,0,0,0,-0.0995,-0.0995,-0.0995,-0.1054,-0.1194,-0.1196,-0.1402,-0.1298,0,0,0,0,0,0,0,0,0,0,-0.1161,-0.107,-0.0995,-0.0995,-0.1054,-0.1194,-0.1196,-0.1293,-0.1304,-0.1335,0,-0.1327,0,-0.1359,-0.1416,-0.1416,0,0,0,-0.1089,-0.106,-0.1114,-0.0995,-0.1055,-0.1194,-0.1141,-0.1299,-0.1312,-0.1351,-0.133,-0.1338,-0.1362,-0.1417,-0.1418,-0.1495,-0.1494,0,0,-0.1081,-0.1017,-0.1105,-0.1121,-0.1053,-0.1136,-0.1145,-0.1307,-0.1295,-0.1331,-0.1343,-0.1366,-0.1418,-0.1419,-0.1495,-0.1495,0,0,0,-0.1035,-0.101,-0.1061,-0.1112,-0.1129,-0.1139,-0.1149,-0.1288,-0.1308,-0.1346,-0.1368,-0.1419,-0.1421,-0.1496,-0.1495,-0.1369,0,0,0,-0.1032,-0.0982,-0.1056,-0.102,-0.1124,-0.12,-0.1126,-0.1297,-0.1316,-0.1367,-0.1419,-0.1423,-0.1496,-0.1495,-0.1374,-0.1277,0,0,0,-0.0995,-0.0978,-0.0986,-0.1016,-0.1064,-0.1199,-0.1229,-0.1302,-0.1329,-0.1416,-0.1423,-0.1496,-0.1495,-0.1377,-0.1285,-0.1161,0,0,0,-0.094,-0.0912,-0.0983,-0.0957,-0.1062,-0.1133,-0.1229,-0.1287,-0.135,-0.142,-0.1496,-0.1495,-0.1379,-0.129,-0.1167,-0.088,-0.0828,0,0,-0.0878,-0.0902,-0.0891,-0.0959,-0.0987,-0.1118,-0.1152,-0.1269,-0.1349,-0.1452,-0.1455,-0.1372,-0.1286,-0.1162,-0.0825,-0.0773,0,0,0,-0.0856,-0.0843,-0.0864,-0.0892,-0.0978,-0.1052,-0.1185,-0.1232,-0.1313,-0.1377,-0.1388,-0.1336,-0.1262,-0.1104,-0.1064,-0.1138,-0.149,-0.1491,-0.1491,-0.0725,-0.0776,-0.0757,-0.0834,-0.0882,-0.1012,-0.1054,-0.1146,-0.1256,-0.1258,-0.1247,-0.1081,-0.0913,-0.0879,-0.0962,-0.1286,-0.1285,-0.1285,-0.1284,-0.062,-0.0594,-0.0667,-0.0662,-0.0764,-0.0808,-0.0937,-0.1001,-0.102,-0.1147,-0.1081,-0.0996,-0.0827,-0.0931,-0.1277,-0.1278,-0.1279,-0.128,-0.128,-0.0506,-0.0497,-0.051,-0.0519,-0.054,-0.0661,-0.0582,-0.0729,-0.0854,-0.0817,-0.0638,-0.0637,-0.0713,-0.0784,-0.0783,-0.0782,-0.0781,-0.078,-0.078,-0.0373,-0.0393,-0.0345,-0.0367,-0.0347,-0.0317,-0.0368,-0.0337,-0.0349,-0.0437,-0.0435,-0.0638,-0.0927,-0.0928,-0.0765,-0.0767,-0.0769,-0.0771,-0.0772,-0.0222,-0.0246,-0.0161,-0.0125,-0.0045,0.0166,0.0107,0.0283,0.024,0.0304,-0.0074,-0.0232,-0.0228,-0.026,-0.0244,0.0086,0.0086,0.0086,0.0086,-0.0123,-0.0131,0.001,0.0118,0.0272,0.0393,0.0851,0.0937,0.0664,0.0501,0.0228,0.014,0.0109,0.0121,0.008,0.0096,0.0504,0.0504,0.0504,-0.0043,-0.0009,0.0133,0.0233,0.0421,0.0727,0.1239,0.1491,0.0991,0.0495,0.0067,0.0049,-0.0125,-0.0168,-0.0198,-0.0248,-0.0243,0,0]}],[{"header":{"parameterUnit":"m.s-1","parameterCategory":2,"la1":30.2992,"la2":30.254,"lo1":-89.0895,"lo2":-89.0443,"dy":0.0025,"dx":0.0025,"nx":19,"ny":19,"refTime":"2026-05-08T03:00:00:Z","depth":"2","parameterNumber":2,"parameterNumberName":"U-component_of_CURRENTS"},"data":[0,0,0,0.2529,0.2532,0.2625,0.2626,0.261,0.261,0,0,0,0,0,0,0,0,0,0,0,0.2488,0.2489,0.2529,0.2532,0.2625,0.2626,0.261,0.261,0,0,0,0,0,0,0,0,0,0,0,0.2488,0.2489,0.249,0.2532,0.2625,0.2626,0.261,0.2569,0,0,0,0,0,0,0,0,0,0,0.2493,0.2452,0.2489,0.249,0.2533,0.2625,0.2626,0.2568,0.2571,0.2534,0,0.2561,0,0.2594,0.2607,0.2607,0,0,0,0.2515,0.245,0.2509,0.249,0.2534,0.2625,0.2578,0.2571,0.2574,0.2538,0.2562,0.2562,0.2593,0.2607,0.2607,0.2617,0.2617,0,0,0.251,0.2466,0.2507,0.2512,0.2572,0.2575,0.2581,0.2574,0.256,0.2562,0.2563,0.2593,0.2607,0.2606,0.2616,0.2617,0,0,0,0.2506,0.2462,0.2524,0.2511,0.2544,0.2579,0.2585,0.2559,0.2591,0.2563,0.2593,0.2606,0.2606,0.2616,0.2616,0.2633,0,0,0,0.2502,0.2463,0.2521,0.2491,0.2545,0.2565,0.257,0.2591,0.2592,0.2593,0.2606,0.2605,0.2615,0.2616,0.2632,0.2636,0,0,0,0.2482,0.2459,0.2484,0.2489,0.2544,0.2567,0.2596,0.2592,0.261,0.2607,0.2605,0.2615,0.2616,0.2631,0.2634,0.2724,0,0,0,0.2416,0.2438,0.2482,0.2508,0.2543,0.2611,0.2596,0.2616,0.2615,0.2606,0.2616,0.2616,0.263,0.2633,0.2722,0.278,0.2796,0,0,0.241,0.2436,0.2455,0.2498,0.2572,0.2596,0.2633,0.262,0.2616,0.2604,0.2605,0.2632,0.2634,0.2724,0.2834,0.2848,0,0,0,0.2432,0.245,0.2478,0.2531,0.2593,0.2632,0.2644,0.2644,0.2648,0.2627,0.2647,0.2648,0.2704,0.2734,0.2746,0.2621,0.2621,0.2621,0.2621,0.2375,0.2435,0.2469,0.2548,0.2585,0.265,0.2672,0.2678,0.2663,0.2672,0.2673,0.2764,0.2795,0.2804,0.2687,0.2687,0.2687,0.2687,0.2687,0.2379,0.2394,0.2462,0.2513,0.258,0.2612,0.2673,0.2687,0.2745,0.27,0.2756,0.2762,0.2818,0.2689,0.2688,0.2688,0.2688,0.2688,0.2688,0.2336,0.2345,0.2395,0.2463,0.2512,0.2579,0.2656,0.2701,0.2758,0.2805,0.2893,0.2893,0.2793,0.2857,0.2857,0.2857,0.2858,0.2858,0.2858,0.2258,0.2312,0.233,0.2399,0.2433,0.25,0.2647,0.2747,0.2891,0.2926,0.2927,0.2823,0.2817,0.2805,0.2865,0.2864,0.2863,0.2862,0.2862,0.2214,0.222,0.2248,0.2281,0.2366,0.2434,0.2607,0.2864,0.2999,0.3089,0.3018,0.3012,0.3026,0.3016,0.301,0.312,0.312,0.312,0.312,0.2153,0.2167,0.2181,0.222,0.2288,0.2396,0.2536,0.2622,0.2835,0.2863,0.2872,0.2796,0.2796,0.2789,0.2785,0.277,0.2818,0.2816,0.2815,0.2134,0.2131,0.213,0.2164,0.2243,0.2369,0.2391,0.2282,0.2498,0.2784,0.2627,0.3137,0.3053,0.304,0.305,0.3035,0.302,0,0]},{"header":{"parameterUnit":"m.s-1","parameterCategory":2,"la1":30.2992,"la2":30.254,"lo1":-89.0895,"lo2":-89.0443,"dy":0.0025,"dx":0.0025,"nx":19,"ny":19,"refTime":"2026-05-08T03:00:00:Z","depth":"2","parameterNumber":3,"parameterNumberName":"V-component_of_CURRENTS"},"data":[0,0,0,-0.0265,-0.0269,-0.05,-0.0502,-0.0717,-0.0718,0,0,0,0,0,0,0,0,0,0,0,-0.0217,-0.0219,-0.0265,-0.0269,-0.05,-0.0502,-0.0716,-0.0718,0,0,0,0,0,0,0,0,0,0,0,-0.0216,-0.0218,-0.022,-0.027,-0.05,-0.0502,-0.0716,-0.057,0,0,0,0,0,0,0,0,0,0,-0.0359,-0.0297,-0.0218,-0.022,-0.0271,-0.05,-0.0502,-0.0564,-0.0579,-0.0577,0,-0.0623,0,-0.0644,-0.0727,-0.0728,0,0,0,-0.0304,-0.0285,-0.0352,-0.0221,-0.0272,-0.0499,-0.0406,-0.0573,-0.059,-0.0596,-0.0626,-0.0634,-0.0648,-0.0728,-0.0729,-0.0796,-0.0795,0,0,-0.0291,-0.0253,-0.0341,-0.0363,-0.0343,-0.0398,-0.0413,-0.0585,-0.06,-0.0627,-0.0639,-0.0651,-0.0729,-0.073,-0.0796,-0.0796,0,0,0,-0.0231,-0.0243,-0.031,-0.0354,-0.0386,-0.0404,-0.0421,-0.0594,-0.0618,-0.0641,-0.0654,-0.073,-0.0731,-0.0796,-0.0796,-0.0706,0,0,0,-0.0225,-0.0206,-0.0304,-0.0282,-0.0383,-0.0497,-0.0426,-0.0608,-0.0627,-0.0653,-0.073,-0.0733,-0.0797,-0.0796,-0.0709,-0.0662,0,0,0,-0.0204,-0.0202,-0.0235,-0.028,-0.0361,-0.0495,-0.0532,-0.0614,-0.0632,-0.0728,-0.0733,-0.0797,-0.0796,-0.0712,-0.0667,-0.0557,0,0,0,-0.015,-0.0149,-0.0235,-0.0238,-0.0359,-0.0447,-0.0531,-0.061,-0.0685,-0.073,-0.0797,-0.0796,-0.0713,-0.0671,-0.0561,-0.0286,-0.0243,0,0,-0.0098,-0.0142,-0.014,-0.022,-0.0227,-0.0417,-0.0454,-0.0587,-0.0672,-0.0741,-0.0745,-0.0708,-0.0668,-0.0558,-0.0245,-0.0202,0,0,0,-0.0088,-0.011,-0.0124,-0.0163,-0.0245,-0.034,-0.0494,-0.056,-0.0658,-0.0708,-0.0719,-0.0696,-0.0629,-0.0473,-0.044,-0.0793,-0.0793,-0.0793,-0.0793,-0.0049,-0.0062,-0.0053,-0.0105,-0.0162,-0.0299,-0.0376,-0.0501,-0.0598,-0.0619,-0.0631,-0.0498,-0.0333,-0.0305,-0.0645,-0.0645,-0.0645,-0.0644,-0.0644,0.0022,0.0032,-0.0012,-0.0011,-0.0094,-0.0169,-0.0296,-0.0374,-0.0438,-0.0553,-0.0491,-0.0397,-0.0262,-0.0637,-0.0638,-0.0639,-0.064,-0.0641,-0.0641,0.007,0.0084,0.0047,0.0044,-0.0001,-0.01,-0.0054,-0.02,-0.0332,-0.0318,-0.0134,-0.0133,-0.041,-0.0286,-0.0285,-0.0284,-0.0284,-0.0283,-0.0283,0.0145,0.012,0.0137,0.0102,0.011,0.0121,0.0073,0.0104,0.0093,0.0,0.0003,-0.0376,-0.0388,-0.0389,-0.0272,-0.0274,-0.0275,-0.0276,-0.0277,0.0215,0.0187,0.0251,0.0268,0.0334,0.0515,0.048,0.0644,0.0607,0.0664,0.0209,0.0194,0.0204,0.0179,0.0192,0.0452,0.0452,0.0452,0.0452,0.0256,0.0251,0.0358,0.0455,0.0592,0.0709,0.1069,0.1045,0.086,0.0665,0.0654,0.0609,0.0579,0.0602,0.0567,0.0583,0.0945,0.0945,0.0945,0.0282,0.0334,0.0433,0.0533,0.0713,0.0989,0.133,0.1309,0.1017,0.0945,0.0538,0.0524,0.0429,0.0392,0.0395,0.0351,0.0363,0,0]}],[{"header":{"parameterUnit":"m.s-1","parameterCategory":2,"la1":30.2992,"la2":30.254,"lo1":-89.0895,"lo2":-89.0443,"dy":0.0025,"dx":0.0025,"nx":19,"ny":19,"refTime":"2026-05-08T03:00:00:Z","depth":"4","parameterNumber":2,"parameterNumberName":"U-component_of_CURRENTS"},"data":[0,0,0,0.0963,0.0966,0.1149,0.115,0.1379,0.1381,0,0,0,0,0,0,0,0,0,0,0,0.0881,0.0882,0.0963,0.0967,0.1149,0.115,0.1378,0.1381,0,0,0,0,0,0,0,0,0,0,0,0.0881,0.0882,0.0882,0.0967,0.1149,0.115,0.1378,0.1245,0,0,0,0,0,0,0,0,0,0,0.107,0.1025,0.0881,0.0882,0.0968,0.1149,0.115,0.1239,0.1253,0.129,0,0.1297,0,0.1347,0.1394,0.1395,0,0,0,0.0982,0.1013,0.1027,0.0882,0.097,0.1148,0.1071,0.1247,0.1263,0.1309,0.1301,0.131,0.135,0.1396,0.1397,0.1566,0.1566,0,0,0.0971,0.0957,0.1015,0.1036,0.0991,0.1065,0.1076,0.1257,0.1283,0.1302,0.1316,0.1354,0.1397,0.1399,0.1565,0.1566,0,0,0,0.0933,0.095,0.0962,0.1026,0.1061,0.107,0.1083,0.1276,0.1269,0.1319,0.1357,0.1398,0.1401,0.1565,0.1566,0.1592,0,0,0,0.0927,0.0926,0.0956,0.0956,0.1057,0.1182,0.1098,0.1256,0.1279,0.1356,0.1398,0.1403,0.1565,0.1565,0.159,0.1627,0,0,0,0.0878,0.0924,0.0927,0.0954,0.1025,0.118,0.1186,0.1262,0.1301,0.1395,0.1403,0.1565,0.1565,0.1589,0.1624,0.175,0,0,0,0.0882,0.0891,0.0926,0.0965,0.1022,0.1128,0.1186,0.1299,0.1377,0.1399,0.1565,0.1565,0.1589,0.1622,0.1747,0.1484,0,0,0,0.0888,0.0892,0.0913,0.0948,0.1025,0.1105,0.1235,0.136,0.1399,0.1507,0.1512,0.1591,0.1624,0.1749,0.1528,0,0,0,0,0.0913,0.0897,0.0935,0.0991,0.109,0.1214,0.1333,0.1377,0.149,0.1447,0.1598,0.1619,0.1698,0.1532,0.1569,0.1569,0.1569,0.1569,0.1569,0.0852,0.0901,0.0948,0.102,0.1115,0.1298,0.14,0.1483,0.1519,0.1557,0.1644,0.1764,0.1585,0.1635,0.1636,0.1636,0.1636,0.1636,0.1636,0.0838,0.086,0.0946,0.1022,0.1172,0.1304,0.148,0.1542,0.1711,0.1661,0.1737,0.1572,0.1639,0.1638,0.1638,0.1637,0.1637,0.1637,0.1637,0.0768,0.08,0.0871,0.1008,0.1142,0.1331,0.1495,0.1627,0.1755,0.1839,0.1744,0.1827,0.1826,0.1913,0.1913,0.1914,0.1915,0.1915,0.1916,0.0728,0.0786,0.0844,0.0985,0.1059,0.1253,0.1501,0.1625,0.1791,0.178,0.1896,0.186,0.185,0.1845,0.1926,0.1925,0.1923,0.1922,0.1921,0.063,0.0713,0.0766,0.0837,0.1004,0.1118,0.1378,0.1591,0.1719,0.1795,0.1762,0.1767,0.176,0.1755,0.1745,0.1801,0.1798,0.1795,0,0.0566,0.0614,0.0703,0.0763,0.0857,0.1036,0.1179,0.1372,0.1565,0.1513,0.1741,0.1695,0.1699,0.1679,0.167,0.1649,0,0,0,0.0498,0.0571,0.0579,0.0701,0.0774,0.0985,0.1216,0.1248,0.1535,0.1576,0.1721,0.174,0.1768,0.1959,0.1964,0.1953,0.1946,0,0]},{"header":{"parameterUnit":"m.s-1","parameterCategory":2,"la1":30.2992,"la2":30.254,"lo1":-89.0895,"lo2":-89.0443,"dy":0.0025,"dx":0.0025,"nx":19,"ny":19,"refTime":"2026-05-08T03:00:00:Z","depth":"4","parameterNumber":3,"parameterNumberName":"V-component_of_CURRENTS"},"data":[0,0,0,0.0778,0.0779,0.0839,0.084,0.0841,0.0841,0,0,0,0,0,0,0,0,0,0,0,0.0768,0.0769,0.0777,0.0779,0.0839,0.084,0.0841,0.0841,0,0,0,0,0,0,0,0,0,0,0,0.0768,0.0769,0.077,0.0779,0.0839,0.084,0.0841,0.0814,0,0,0,0,0,0,0,0,0,0,0.0765,0.075,0.0769,0.077,0.078,0.0839,0.084,0.0814,0.0816,0.0792,0,0.0815,0,0.0821,0.0839,0.0839,0,0,0,0.0779,0.0748,0.0781,0.077,0.078,0.0839,0.0812,0.0816,0.0818,0.0794,0.0816,0.0816,0.0821,0.0839,0.0839,0.083,0.083,0,0,0.0776,0.0759,0.0779,0.0783,0.0812,0.081,0.0814,0.0818,0.0815,0.0816,0.0816,0.0821,0.0839,0.0839,0.083,0.083,0,0,0,0.0766,0.0756,0.079,0.0782,0.0796,0.0812,0.0816,0.0815,0.0832,0.0816,0.0821,0.0839,0.0839,0.083,0.083,0.0897,0,0,0,0.0764,0.0751,0.0789,0.0776,0.0797,0.0811,0.0813,0.0832,0.0833,0.0821,0.0839,0.0838,0.083,0.083,0.0895,0.0918,0,0,0,0.0763,0.0749,0.0766,0.0775,0.0802,0.0812,0.0829,0.0833,0.0835,0.0839,0.0838,0.083,0.083,0.0893,0.0915,0.0885,0,0,0,0.0729,0.0751,0.0766,0.0791,0.0802,0.085,0.0829,0.0852,0.086,0.0839,0.083,0.083,0.0892,0.0913,0.0884,0.0781,0,0,0,0.0737,0.0751,0.0768,0.0783,0.0845,0.0841,0.0885,0.0884,0.085,0.0823,0.0824,0.0895,0.0915,0.0885,0.0793,0,0,0,0,0.0758,0.0778,0.0798,0.0838,0.0872,0.0916,0.0914,0.0899,0.0888,0.0856,0.0881,0.089,0.0869,0.0805,0.0831,0.0831,0.0831,0.0831,0.0831,0.0766,0.0796,0.0844,0.0896,0.093,0.0962,0.0972,0.0949,0.0922,0.0918,0.0934,0.0943,0.088,0.0924,0.0924,0.0924,0.0925,0.0925,0.0925,0.0815,0.0841,0.0898,0.0966,0.1017,0.1067,0.1047,0.1027,0.0986,0.097,0.0946,0.0869,0.0931,0.093,0.0929,0.0928,0.0928,0.0927,0.0927,0.0818,0.0833,0.0902,0.1004,0.1093,0.114,0.1146,0.1114,0.1046,0.103,0.0913,0.0964,0.0967,0.101,0.101,0.101,0.101,0.101,0.101,0.0794,0.0853,0.0925,0.1039,0.1115,0.1191,0.1188,0.1131,0.1064,0.0963,0.1039,0.097,0.0968,0.0969,0.1009,0.1009,0.1009,0.1009,0.1009,0.0782,0.0812,0.0895,0.0977,0.1128,0.1164,0.12,0.1056,0.0968,0.0864,0.0899,0.0904,0.0857,0.0856,0.0852,0.0859,0.0858,0.0857,0,0.0756,0.0782,0.0876,0.0968,0.1044,0.1132,0.1025,0.0963,0.0861,0.0853,0.0945,0.0991,0.0992,0.0945,0.0942,0.0941,0,0,0,0.0763,0.078,0.083,0.092,0.1008,0.0969,0.0986,0.0905,0.0928,0.0778,0.0826,0.0834,0.0941,0.1009,0.0947,0.0944,0.0942,0,0]}]]